Simultaneous Nadir Overpasses (SNOs) Predictions

Prediction of SNOs between GOES-17 and TERRA Satellite Orbit:

Table of predicted SNOs for the next 14.0 days since TLE Epoch: 8/29/2020
Index Date Time (GOES-17) GOES-17 Lat,Lon TERRA Lat,Lon Distance(km) Time Diff (sec)
1 08/29/2020 19:39:55 -0.03,-137.19 -0.04,-137.06 15.28 80
2 08/31/2020 19:27:45 -0.04,-137.18 -0.69,-134.11 350.06 80
3 09/01/2020 07:46:28 0.04,-137.18 -0.43,-139.30 240.41 80
4 09/03/2020 07:34:17 0.04,-137.17 0.23,-136.34 94.43 80
5 09/03/2020 19:55:32 -0.04,-137.16 0.90,-141.49 492.69 80
6 09/05/2020 07:22:05 0.04,-137.16 0.82,-133.38 428.89 80
7 09/05/2020 19:43:21 -0.04,-137.15 0.24,-138.54 158.34 80
8 09/07/2020 19:33:49 -0.04,-137.12 -0.36,-135.58 175.42 80
9 09/08/2020 07:55:13 0.04,-137.12 -0.76,-140.77 415.30 80
10 09/10/2020 07:43:02 0.03,-137.09 -0.09,-137.82 82.63 80
